SCP
1 1 1 1 1 0 0 0 0 0 0 0 0 0 0 0 0 0 0 0 0 0 0 0 0 0 0 0 0 0 0 0 0 0 0 0 0 0 0 0 0 0 0
1 1 1 1 1 0 0 0 0 0 0 0 0 0 0 0 0 0 0 0 0 0 0 0 0 0 0 0 0 0 0 0 0 0 0 0 0 0 0 0 0 0 0
1 1 1 1 0 0 0 0 0 0 0 0 0 0 0 0 0 0 0 0 0 0 0 0 0 0 0 0 0 0 0 0 0 0 0 0 0 0 0 0 0 0 0
1 1 0 0 0 0 0 0 0 0 0 0 0 0 0 0 0 0 0 0 0 0 0 0 0 0 0 0 0 0 0 0 0 0 0 0 0 0 0 0 0 0 0
1 0 0 0 0 0 0 0 0 0 0 0 0 0 0 0 0 0 0 0 0 0 0 0 0 0 0 0 0 0 0 0 0 0 0 0 0 0 0 0 0 0 0
0 0 0 0 0 0 0 0 0 0 0 0 0 0 0 0 0 0 0 0 0 0 0 0 0 0 0 0 0 0 0 0 0 0 0 0 0 0 0 0 0 0 0
0 0 0 0 0 0 0 0 0 0 0 0 0 0 0 0 0 0 0 0 0 0 0 0 0 0 0 0 0 0 0 0 0 0 0 0 0 0 0 0 0 0 0
0 0 0 0 0 0 0 0 0 0 0 0 0 0 0 0 0 0 0 0 0 0 0 0 0 0 0 0 0 0 0 0 0 0 0 0 0 0 0 0 0 0 0
0 0 0 0 0 0 0 0 0 0 0 0 0 0 0 0 0 0 0 0 0 0 0 0 0 0 0 0 0 0 0 0 0 0 0 0 0 0 0 0 0 0 0
0 0 0 0 0 0 0 0 0 0 0 0 0 0 0 0 0 0 0 0 0 0 0 0 0 0 0 0 0 0 0 0 0 0 0 0 0 0 0 0 0 0 0
0 0 0 0 0 0 0 0 0 0 0 0 0 0 0 0 0 0 0 0 0 0 0 0 0 0 0 0 0 0 0 0 0 0 0 0 0 0 0 0 0 0 0
0 0 0 0 0 0 0 0 0 0 0 0 0 0 0 0 0 0 0 0 0 0 0 0 0 0 0 0 0 0 0 0 0 0 0 0 0 0 0 0 0 0 0
0 0 0 0 0 0 0 0 0 0 0 0 0 0 0 0 0 0 0 0 0 0 0 0 0 0 0 0 0 0 0 0 0 0 0 0 0 0 0 0 0 0 0
0 0 0 0 0 0 0 0 0 0 0 0 0 0 0 0 0 0 0 0 0 0 0 0 0 0 0 0 0 0 0 0 0 0 0 0 0 0 0 0 0 0 0
0 0 0 0 0 0 0 0 0 0 0 0 0 0 0 0 0 0 0 0 0 0 0 0 0 0 0 0 0 0 0 0 0 0 0 0 0 0 0 0 0 0 0
0 0 0 0 0 0 0 0 0 0 0 0 0 0 0 0 0 0 0 0 0 0 0 0 0 0 0 0 0 0 0 0 0 0 0 0 0 0 0 0 0 0 0
0 0 0 0 0 0 0 0 0 0 0 0 0 0 0 0 0 0 0 0 0 0 0 0 0 0 0 0 0 0 0 0 0 0 0 0 0 0 0 0 0 -0 -0
0 0 0 0 0 0 0 0 0 0 0 0 0 0 0 0 0 0 0 0 0 0 0 0 0 0 0 0 0 0 0 0 0 0 0 0 0 0 0 0 0 -0 -0
0 0 0 0 0 0 0 0 0 0 0 0 0 0 0 0 0 0 0 0 0 0 0 0 0 0 0 0 0 0 0 0 0 0 0 0 0 0 0 0 0 0 0
0 0 0 0 0 0 0 0 0 0 0 0 0 0 0 0 0 0 0 0 0 0 0 0 0 0 0 0 0 0 0 0 0 0 0 0 0 0 0 0 0 0 0
0 0 0 0 0 0 -0 0 0 0 0 0 0 0 0 0 0 0 0 0 0 0 0 0 0 0 0 0 0 0 0 0 0 0 0 0 0 0 0 0 0 0 0
0 0 0 0 0 0 -0 0 0 0 0 0 0 0 0 0 0 0 0 0 0 0 0 0 0 0 0 0 0 0 0 0 0 0 0 0 0 0 0 0 0 0 0
0 0 0 0 0 0 -0 0 0 0 0 0 0 0 0 0 0 0 0 0 0 0 0 0 0 0 0 0 0 0 0 0 0 0 0 0 0 0 0 0 0 0 0
0 0 0 0 0 0 0 0 0 0 0 0 0 0 0 0 0 0 0 0 0 0 0 0 0 0 0 0 0 0 0 0 0 0 0 0 0 0 0 0 0 0 0
0 0 0 0 0 0 0 0 0 0 0 0 0 0 0 0 0 0 0 0 0 0 0 0 0 0 0 0 0 0 0 0 0 0 0 0 0 0 0 0 0 0 0
0 0 0 0 0 0 0 0 0 0 0 0 0 0 0 0 0 0 0 0 0 0 0 0 0 0 0 0 0 0 0 0 0 0 0 0 0 0 0 0 0 0 0
Wind_Speed
4 4 3 3 3 3 3 3 3 3 3 3 3 3 3 3 2 2 1 4 4 5 5 6 6 6 5 5 5 4 4 4 3 3 3 3 3 3 2 2 2 1 1
4 4 4 4 3 3 3 4 4 3 3 3 3 3 3 3 2 2 2 2 4 5 5 5 5 5 5 4 4 4 4 3 3 3 3 3 2 2 2 2 2 2 2
4 4 4 4 4 4 4 3 4 3 3 3 3 3 3 3 3 3 3 2 2 5 6 6 6 6 5 5 5 5 6 6 6 6 6 6 6 6 6 6 6 5 5
5 4 4 4 4 4 4 4 4 3 3 3 3 2 2 3 4 3 3 3 3 3 5 9 8 8 8 7 8 8 8 9 9 9 9 10 10 9 9 9 9 8 8
3 3 3 3 4 3 4 4 3 3 4 4 4 3 3 3 3 4 5 5 5 5 5 7 10 10 9 9 9 9 10 10 10 11 12 12 12 11 11 10 10 9 9
3 4 3 4 4 3 4 4 4 4 4 5 5 5 4 3 4 4 5 5 6 7 7 7 6 7 11 11 10 10 11 11 12 13 12 12 12 12 12 11 11 11 10
2 3 3 3 4 3 4 5 4 5 4 5 5 4 4 5 5 4 4 5 6 6 7 7 5 5 5 11 11 12 12 13 14 14 14 13 12 12 12 11 11 10 10
2 2 3 3 3 3 4 6 5 4 4 5 4 4 3 2 3 4 3 4 5 5 7 7 7 6 5 4 8 13 12 13 14 14 13 12 12 11 11 10 10 10 10
0 1 1 2 3 3 4 6 7 7 6 4 3 4 5 5 3 2 3 4 4 5 5 6 7 7 7 6 6 10 13 12 13 12 12 12 11 11 10 10 9 9 8
3 2 1 1 1 2 3 4 6 5 7 6 3 2 2 5 5 4 2 3 4 4 5 5 5 6 6 5 6 11 12 11 11 11 11 11 10 10 9 9 9 9 9
5 5 5 3 2 2 1 2 4 5 4 5 4 3 3 3 3 5 5 4 3 4 4 4 4 4 4 4 3 7 11 10 10 10 10 9 9 9 8 8 8 8 9
5 7 6 5 5 4 3 2 2 3 3 4 3 3 4 4 4 4 5 6 4 3 3 3 3 3 3 2 3 7 8 8 8 8 8 8 8 8 8 8 8 9 9
5 7 6 6 5 5 5 5 5 4 3 4 4 3 3 2 3 4 7 6 4 3 2 2 2 2 2 2 2 4 4 4 4 5 5 6 6 6 7 7 7 8 8
5 6 7 7 7 7 7 7 6 6 6 6 6 5 4 3 4 5 6 7 6 3 2 2 1 1 1 1 1 2 1 1 1 1 2 3 4 4 5 6 6 7 7
6 7 8 8 8 8 8 8 7 8 8 7 7 7 6 4 4 4 5 6 7 5 3 1 1 1 1 0 1 0 1 2 2 1 1 0 1 2 3 4 4 5 6
7 8 9 8 9 9 8 8 8 8 10 8 6 8 8 5 5 5 5 4 4 5 5 2 1 1 1 1 1 0 1 3 3 3 3 2 1 0 1 2 2 3 4
8 9 8 9 9 9 8 9 9 9 10 9 8 9 9 7 6 5 5 5 5 5 7 3 2 2 2 2 2 1 1 1 2 2 2 3 3 2 1 1 1 1 2
9 8 8 9 9 9 8 9 10 10 10 10 9 9 9 7 8 6 6 6 5 5 7 6 3 3 3 2 2 2 2 2 2 2 0 2 3 3 3 3 2 1 1
9 9 9 9 9 9 9 9 10 10 10 9 9 9 8 9 9 6 7 7 6 6 5 6 3 2 2 2 2 2 2 3 2 2 2 0 1 3 4 4 4 3 3
9 9 9 9 8 8 9 9 10 10 10 10 9 9 8 8 7 7 7 7 7 7 6 5 4 3 2 2 2 2 2 2 2 3 3 2 2 2 3 4 5 5 5
9 8 9 9 8 7 7 8 8 9 9 9 9 9 9 10 10 7 6 6 7 6 5 5 3 2 2 2 2 2 2 2 1 2 2 2 2 2 2 3 4 5 5
8 9 9 8 8 6 9 11 9 8 8 8 8 8 9 10 12 12 11 9 7 6 5 3 2 2 1 1 1 1 1 2 2 2 2 2 2 2 2 2 3 5 5
8 9 8 8 8 8 11 12 12 8 8 8 7 7 7 7 8 8 10 12 10 8 5 4 3 2 1 1 1 0 0 1 2 2 2 2 2 2 2 3 4 5 5
6 6 7 7 7 8 11 12 12 9 9 8 7 7 7 7 6 6 7 7 6 5 4 2 2 2 2 2 2 1 1 2 3 1 1 2 2 3 3 3 4 4 5
6 6 5 7 7 7 9 10 9 7 7 7 7 7 6 6 7 7 7 6 5 4 4 3 1 3 4 4 4 2 1 1 2 1 0 2 2 3 3 3 3 4 5
6 6 7 7 7 6 8 9 8 5 6 4 4 5 7 7 6 6 5 4 4 3 4 3 3 3 2 0 5 4 2 1 1 2 1 1 2 2 3 2 3 3 3
Wind_Direction
180 179 183 186 185 177 174 171 176 181 178 182 191 194 192 185 179 172 165 175 175 175 178 175 173 175 173 172 167 154 150 156 157 162 168 167 170 172 167 156 149 150 155
183 185 188 189 188 182 178 178 178 184 189 184 192 183 173 166 156 144 137 152 154 151 147 148 147 153 152 146 139 130 126 124 117 111 111 113 117 112 108 111 109 102 92
182 188 193 193 189 178 174 170 164 167 183 173 167 161 147 139 127 116 110 104 113 124 126 122 122 125 126 125 118 110 103 96 93 88 84 81 79 76 73 72 69 68 64
182 186 195 199 190 177 174 174 166 164 164 149 134 124 110 107 104 102 100 96 92 92 98 102 102 101 102 105 104 102 97 92 87 82 80 77 74 73 70 67 64 62 61
185 193 201 199 186 177 176 180 168 164 157 142 125 102 85 90 95 97 94 90 87 83 81 85 89 91 94 95 98 99 96 91 86 82 78 76 73 72 69 67 65 63 60
185 193 200 201 190 180 180 172 165 160 147 139 120 95 74 72 81 88 92 87 83 83 79 73 68 72 78 82 85 90 92 89 84 81 80 77 74 71 69 67 64 62 58
187 191 209 205 199 189 183 172 158 157 150 138 122 107 73 63 68 70 84 95 90 86 83 76 71 64 66 72 77 82 85 86 84 80 77 75 73 71 69 66 63 60 57
219 202 207 208 202 192 184 178 166 160 162 164 149 134 132 101 66 61 78 98 98 91 87 83 78 73 67 63 76 82 82 86 85 82 79 75 73 70 67 64 60 58 55
287 176 202 198 196 198 198 189 178 175 176 180 168 149 158 165 133 75 66 83 96 94 91 86 81 76 74 67 65 72 77 77 81 81 79 76 71 67 64 60 55 50 47
28 43 81 126 182 168 184 195 188 180 172 175 169 166 144 139 144 136 96 77 88 92 93 91 84 76 72 69 74 84 80 75 77 79 78 74 69 63 59 55 51 46 42
34 35 44 50 63 89 126 173 180 174 174 175 166 151 122 101 111 135 143 136 92 68 73 83 86 82 74 72 69 86 85 79 76 74 71 67 62 56 52 48 45 41 36
37 35 44 45 45 50 49 59 105 144 158 158 153 149 151 149 151 136 138 140 119 86 73 75 83 86 78 66 72 90 89 85 78 73 67 61 55 51 48 46 44 40 35
42 32 43 47 47 51 54 57 65 71 96 117 121 120 114 117 130 126 127 126 110 95 84 76 79 94 94 67 52 70 84 86 84 77 69 61 53 50 48 44 41 38 34
55 46 51 55 55 58 62 64 65 65 68 77 85 93 91 85 105 124 131 133 121 97 84 99 87 109 91 84 11 21 48 31 54 79 74 59 49 45 42 41 40 36 33
61 56 56 59 57 58 61 67 69 68 68 67 69 76 79 75 81 89 112 130 134 134 121 125 107 98 110 167 276 332 312 309 299 269 239 209 33 37 38 40 39 36 31
61 64 59 60 61 60 62 68 69 68 72 64 64 71 68 68 76 85 96 90 98 121 123 123 103 86 115 147 158 234 290 302 299 275 243 220 206 152 49 37 31 28 25
60 63 63 63 63 61 62 68 69 69 71 67 64 70 68 69 78 78 85 88 88 102 113 102 78 69 77 56 25 7 334 315 306 292 247 219 211 210 222 254 328 1 10
60 61 64 64 64 62 61 67 69 67 69 68 65 68 67 74 73 72 79 83 85 90 117 115 77 53 52 36 22 15 11 8 346 345 273 214 217 218 225 233 241 267 318
63 60 62 64 62 62 63 65 69 69 67 65 64 67 66 75 74 74 78 82 84 86 90 105 87 56 51 35 36 25 16 4 1 18 20 315 244 231 232 235 237 245 259
66 65 63 62 61 63 66 69 71 70 68 63 60 61 62 71 79 82 82 85 90 89 90 95 89 65 51 30 44 28 11 3 354 1 3 357 345 299 266 251 245 245 250
64 65 66 60 57 59 66 75 73 73 70 65 57 54 58 67 73 78 92 96 99 97 96 93 85 70 47 38 35 6 2 338 341 0 335 346 338 312 299 282 264 255 253
58 60 59 61 57 57 70 77 80 72 67 65 60 53 54 54 62 69 80 86 95 105 107 99 95 96 66 37 13 11 3 359 338 6 338 321 329 300 294 284 281 272 262
60 59 54 60 60 56 70 78 77 76 67 60 56 54 55 48 55 67 67 65 64 74 99 124 129 154 183 200 181 41 348 293 286 324 328 306 317 296 295 289 289 281 272
62 60 54 57 62 56 72 81 80 75 69 61 56 58 63 49 51 72 76 68 59 51 57 90 165 204 218 207 195 205 274 280 277 266 257 290 309 296 302 301 297 292 282
65 59 54 54 60 50 65 82 83 76 69 58 52 52 58 57 54 72 78 71 55 27 23 24 264 250 246 229 190 172 183 344 333 313 240 274 302 306 299 297 302 302 293
72 68 60 51 56 51 59 77 82 81 73 59 45 40 45 51 53 68 77 74 52 7 357 7 21 21 24 42 186 197 209 221 281 290 236 251 294 317 309 294 298 305 302